MSAT M1 (23846 NORAD) Tracking and Keplerian Element Data

This shows tracking and keplerian element data for the satellite.

Feedback or suggestion? Click here.




ElementValue
Catalog23846
NameMSAT M1
Epoch Orbit9012
Epoch Day336.55210939
Epoch Year2020
RAAN40.65
Inclination9.5073
Eccentricity0.0017648
Argument of Perigee167.3481
Mean Anonmoly209.5207
Mean Motion0.98647972
Decay Rate-2.39E-06
L11 23846U 96022A 20336.55210939 -.00000239 00000-0 00000-0 0 9995
L22 23846 9.5073 40.6500 0017648 167.3481 209.5207 0.98647972 90129



Live tracking and technical data element details for MSAT M1 (NORAD 23846). MSAT M1 can be tracked NOW for your location showing map with azimuth and elevation plus other details from your city location.







IsCatalogInMostPopularTable: catalog: 23846, numindb: 432
Update: records affected: 1



GetName: 23846 MSAT M1

Hit Count: updated at: Thu, 16 Apr 2026 04:36:52 GMT